Regional Weather Roundup
Issued by NWS

Home | Current Version | Previous Version | Graphics & Text | Print | Product List | Glossary On
Versions: 1 2 3 4 5 6 7 8 9 10 11 12 13 14 15 16 17 18 19 20 21 22 23 24 25 26 27 28 29 30 31 32 33 34 35 36 37 38 39 40 41 42 43 44 45 46 47 48 49 50
000
ASUS43 KBIS 210310
RWRND

NORTH DAKOTA REGIONAL WEATHER ROUNDUP
NATIONAL WEATHER SERVICE BISMARCK ND
1000 PM CDT FRI OCT 20 2017

NOTE: "FAIR" INDICATES FEW OR NO CLOUDS BELOW 12,000 FEET WITH NO
SIGNIFICANT WEATHER AND/OR OBSTRUCTIONS TO VISIBILITY.


NDZ001>003-009>011-017-210400-
NORTHWEST NORTH DAKOTA

CITY           SKY/WX    TMP DP  RH WIND       PRES   REMARKS
WILLISTON      CLEAR     63  41  45 CALM      29.16S
MINOT          CLEAR     66  48  52 SE14      29.19F
MINOT AFB      CLEAR     51  42  71 SE9       29.18F
$$

NDZ018>021-031>035-040>046-210400-
SOUTHWEST NORTH DAKOTA

CITY           SKY/WX    TMP DP  RH WIND       PRES   REMARKS
BISMARCK       CLEAR     68  53  58 S22       29.25S
DICKINSON      CLOUDY    62  36  37 SW12      29.19S
GARRISON         N/A     59  49  69 SE8       29.20F
HETTINGER ARPT CLOUDY    56  35  45 S8        29.26R
$$

NDZ004>008-012>016-024-026-027-054-210400-
NORTHEAST NORTH DAKOTA

CITY           SKY/WX    TMP DP  RH WIND       PRES   REMARKS
GRAND FORKS    CLOUDY    70  55  59 S21G39    29.37R
GRND FRKS AFB  CLOUDY    68  54  60 S20G30    29.36R
DEVILS LAKE    PTCLDY    65  53  65 S18G24    29.30F
$$

NDZ022-023-025-028>030-036>039-047>053-210400-
SOUTHEAST NORTH DAKOTA

CITY           SKY/WX    TMP DP  RH WIND       PRES   REMARKS
FARGO          CLOUDY    70  55  59 S22G40    29.42F
JAMESTOWN      CLEAR     65  53  65 S14       29.35S
$$




USA.gov is the U.S. government's official web portal to all federal, state and local government web resources and services.